www.pogodaiklimat.ru

Погода и климат >> Архив погоды >> Мадагаскар >> Taolagnaro


ПОГОДА в Taolagnaro

  • Прогноз погоды в Taolagnaro
  • Монитор погоды в Taolagnaro
  • Климат города

АРХИВ ПОГОДЫ в Taolagnaro

Время (UTC), дата Ветер
(напр.,м/с)
 
Видим.   Явления Облачность Т
(С)
Тd
(С)
f
(%)
Тe
(С)
Тes
(С)
Комфортность P
(гПа)
Po
(гПа)
Тmin
(С)
Tmax
(С)
R
(мм)
R24
(мм)
S
(см)
06 14.04 В 6 30 км 8/8 600 м
[Cu Sc]
+24.1 +19.1 74 +29 +30 душно 1021.0 1020.0 +20.0 +25.5
09 14.04 В 10 30 км 5/5 600 м
[Cu Sc]
+25.5 +20.0 72 +31 +32 очень
душно
1019.2 1018.3
12 14.04 В 9
{18}
30 км 4/4 700 м
[Cu Sc]
+25.8 +19.5 68 +31 +32 очень
душно
1017.9 1017.0
15 14.04 В 9
{17}
20 км 4/4 600 м
[Cu Sc]
+22.1 +19.1 83 +28 +28 душно 1017.7 1016.7 +26.5
18 14.04 В 8 20 км 3/3 480 м
[Cu Sc]
+21.6 +19.9 90 +27 +27 душно 1017.9 1017.0 +26.5
21 14.04 В 8 20 км 3/3 480 м
[Cu Sc]
+21.2 +19.3 89 +26 +26 душно 1017.4 1016.4
00 15.04 В 10
{15}
20 км 1/1 480 м
[Cu Sc]
+21.6 +20.1 91 +27 +27 душно 1016.0 1015.0
03 15.04 25 км н/о +22.0 +18.9 83 +27 +27 душно 1016.3 1015.3
06 15.04 В 8 30 км 1/1 600 м
[Cu Sc]
+24.8 +20.2 76 +31 +32 очень
душно
1016.2 1015.2 +21.1 +26.5
09 15.04 В 9 30 км 1/1 600 м
[Cu Sc]
+27.1 +21.1 70 +34 +35 очень
душно
1015.3 1014.4
12 15.04 В 8 30 км 5/1 600 м
[Cu med, cong Ac trans Ci sp]
+26.0 +22.2 80 +34 +35 очень
душно
1013.6 1012.6
15 15.04 В 6 25 км 8/5 600 м
[Cu Sc Ac trans]
+24.2 +22.0 88 +31 +31 очень
душно
1013.9 1012.9 +27.2
18 15.04 В 7 20 км 8/4 600 м
[Cu Sc Ac trans]
+24.0 +21.9 88 +31 +31 очень
душно
1014.3 1013.3 +27.2
21 15.04 20 км н/о +23.3 +21.4 89 +31 +31 очень
душно
1013.9 1012.9
00 16.04 штиль 0 10 км 9/9 600 м
[Cb cap]
+1 +1 1013.4 1012.4
03 16.04 СВ 5 20 км в посл. час гроза 4/3 600 м
[Cb calv Ci sp]
+23.0 +20.6 86 +30 +30 очень
душно
1013.9 1012.9
06 16.04 В 3 30 км 5/3 600 м
[Cb calv Ac trans Ci sp]
1014.8 1013.8 +21.4 +27.2
09 16.04 Ю 3 30 км 4/3 600 м
[Cu Sc Ci sp]
+26.5 +21.9 76 +34 +42 очень
душно
1014.6 1013.6
12 16.04 ЮВ 2 30 км 3/3 600 м
[Cu Sc]
+26.1 +22.3 80 +34 +38 очень
душно
1014.1 1013.1
15 16.04 штиль 0 30 км 6/6 480 м
[Cu Sc]
+24.4 +22.0 86 +31 +31 очень
душно
1014.6 1013.6 +26.6
18 16.04 ЮВ 4 20 км 8/8 480 м
[Cu Sc]
+24.3 +22.2 88 +32 +32 очень
душно
1016.3 1015.3 +26.6
21 16.04 В 1 10 км осадки на расстоянии {дождь} 9/9 480 м
[Cu Sc]
+23.4 +22.1 92 +32 +32 очень
душно
1016.6 1015.6 0.0
00 17.04 ЮВ 4 10 км осадки на расстоянии {дождь} 9/9 480 м
[Cu Sc]
+23.0 +21.3 90 +31 +31 очень
душно
1016.5 1015.5 0.0
03 17.04 В 2 8000 м дождь 9/9 480 м
[Cu Sc]
+21.5 +20.9 96 +27 +27 душно 1017.2 1016.2 4
06 17.04 В 4 20 км {дождь} 8/8 480 м
[Cu Sc]
+23.5 +21.2 87 +30 +31 очень
душно
1018.2 1017.3 +21.5 +26.6 5
09 17.04 В 4 30 км 4/4 600 м
[Cu Sc]
+27.0 +20.2 66 +33 +39 очень
душно
1017.8 1016.8
12 17.04 В 7 30 км 5/5 600 м
[Cu Sc]
+26.0 +20.6 72 +32 +33 очень
душно
1017.0 1016.0
15 17.04 В 3 25 км 5/5 480 м
[Cu Sc]
+23.0 +20.7 87 +30 +30 очень
душно
1017.4 1016.4 +27.2
18 17.04 В 2 20 км 4/4 480 м
[Cu Sc]
+22.4 +20.2 87 +29 +29 очень
душно
1018.0 1017.0 +27.2
21 17.04 В 3 20 км 5/5 480 м
[Cu Sc]
+22.2 +19.3 84 +28 +28 душно 1018.0 1017.1
00 18.04 В 3 20 км 5/5 480 м
[Cu Sc]
+22.8 +20.5 87 +30 +30 очень
душно
1018.0 1017.1
03 18.04 В 3 20 км 5/5 480 м
[Cu Sc]
+23.1 +19.4 80 +30 +30 очень
душно
1017.6 1016.7
06 18.04 СВ 6 30 км 8/5 600 м
[Cu Sc Ci sp]
+25.8 +20.2 71 +32 +33 очень
душно
1018.0 1017.9 +22.0 +27.2
09 18.04 В 6 25 км 8/8 600 м
[Cu Sc]
+25.8 +20.8 74 +32 +33 очень
душно
1017.9 1017.0
12 18.04 В 5 15 км осадки на расстоянии 9/9 480 м
[Cu Sc]
+25.0 +20.8 78 +31 +32 очень
душно
1017.2 1016.2
15 18.04 В 5 10 км 9/9 480 м
[Cu Sc]
+23.6 +20.2 81 +29 +29 душно 1017.2 1016.2 +26.4
18 18.04 СВ 6 20 км 8/8 480 м
[Cu Sc]
+24.2 +19.2 74 +29 +29 душно 1017.7 1016.7 +26.4
21 18.04 СВ 4 20 км 6/6 480 м
[Cu Sc]
+24.4 +20.0 76 +30 +30 очень
душно
1017.5 1016.5
00 19.04 В 3 20 км 5/5 480 м
[Cu Sc]
+22.4 +20.6 90 +29 +29 очень
душно
1016.6 1015.6
03 19.04 В 4 20 км 8/5 480 м
[Cu Sc Ci sp]
+22.2 +20.4 90 +29 +29 очень
душно
1016.5 1015.5
06 19.04 СВ 7 30 км 5/3 600 м
[Cu Sc Ac trans]
+25.3 +21.4 79 +32 +33 очень
душно
1016.4 1015.4 +22.2 +26.4
09 19.04 В 9 30 км 3/3 600 м
[Cu Sc]
+28.0 +22.1 70 +36 +37 очень
душно
1015.0 1014.0
12 19.04 СВ 8 30 км 3/1 700 м
[Cu Sc Ci sp]
+27.9 +21.4 68 +36 +36 очень
душно
1013.2 1012.2
15 19.04 В 8 20 км 9/6 600 м
[Cb cap Ci ing]
+25.1 +21.2 79 +32 +32 очень
душно
1013.0 1012.0 +28.4
18 19.04 0 6000 м гроза, ливневой дождь 9/9 480 м
[Cb cap]
+21.4 +18.9 86 1016.4 1015.4 +28.4 4
21 19.04 0 15 км зарница {гроза, дождь} 5/5 480 м
[Cb cap]
+21.6 +19.9 90 1014.5 1013.5 6
00 20.04 0 20 км 3/3 480 м
[Cu Sc]
+24.4 +20.4 78 1013.5 1012.5 2
03 20.04 0 25 км 1/1 480 м
[Cu Sc]
+22.0 +20.2 90 1014.0 1013.0 6
06 20.04 30 км 3/1 600 м
[Cu hum]
+26.0 +21.7 77 1014.7 1013.7 +21.6 +28.4 6
09 20.04 0 30 км 3/3 600 м
[Cu Sc]
+28.9 +21.7 65 1013.5 1012.5
12 20.04 0 30 км 1/1 600 м
[Cu med, cong]
+28.2 +22.7 72 1011.9 1011.0
15 20.04 0 25 км 1/1 600 м
[Cu med, cong]
+25.3 +22.8 86 1012.0 1011.1 +29.0
18 20.04 0 20 км 3/3 600 м
[Cu Sc]
+25.0 +22.6 87 1012.6 1011.7 +29.0
21 20.04 0 20 км 6/5 600 м
[Cu Sc Ci sp]
+24.2 +22.4 90 1012.1 1011.2
00 21.04 0 20 км 6/5 600 м
[Cu Sc Ci sp]
+24.9 +22.1 84 1011.9 1011.0
03 21.04 0 20 км 5/4 600 м
[Cu Sc Ac trans]
+24.7 +22.0 85 1012.3 1011.4

 

Местоположение метеостанции Taolagnaro (Мадагаскар): широта -25.03 долгота 46.95 высота над уровнем моря 9 м.

В архиве по умолчанию представлена погода в Taolagnaro за последнюю неделю. Архивные данные за месяц целиком и за предыдущие месяцы, начиная с января 2011 года, Вы можете получить, выбрав интересующий диапазон дат из раскрывающегося списка и нажав кнопку "Ввод!".


*Определитесь, кто Вы:
робот инопланетянин человек

Внимание! Время в таблицах - всемирное. Для получения местного времени необходимо прибавить поправку, которая в Taolagnaro равна 3 ч.

Смотрите также архив погоды в соседних городах и на ближайших метеорологических станциях:

Погода в Ranohira (Мадагаскар) (166 км)
Погода в Farafangana (Мадагаскар) (264 км)
Погода в Toliara (Мадагаскар) (375 км)
Погода в Fianarantsoa (Мадагаскар) (398 км)
Погода в Mananjary (Мадагаскар) (408 км)
Погода в Morombe (Мадагаскар) (516 км)
Погода в Antsirabe (Мадагаскар) (581 км)
Погода в Morondava (Мадагаскар) (593 км)
Погода в Mahanoro (Мадагаскар) (609 км)
Погода в Antananarivo (Мадагаскар) (687 км)

Пояснения к столбцам:

Ветер - указаны скорость ветра в м/с - средняя за 10 мин, порывы в срок и между сроками (в фигурных скобках) и направление, откуда дует ветер: С - северный, СВ - северо-восточный, В - восточный, ЮВ - юго-восточный, Ю - южный, ЮЗ - юго-западный, З - западный, СЗ - северо-западный.
Видимость - горизонтальная дальность видимости в метрах или километрах. При видимости от 1 до 10 км при отсутствии осадков обычно наблюдается дымка, при ухудшении видимости до 1 км и менее - туман. В сухую погоду видимость может ухудшаться дымом, пылью или мглою.
Явления - указаны атмосферные явления, наблюдавшиеся в срок или в последний час перед сроком; фигурными скобками обозначены явления, наблюдавшиеся между сроками (за 1-3 часа до срока); квадратными скобками обозначены град или гололедные отложения с указанием их диаметра в мм.
Облачность - указаны через наклонную черту общая и нижняя облачность в баллах и высота нижней границы облаков в метрах; квадратными скобками обозначены формы облаков: Ci - перистые, Cs - перисто-слоистые, Cc - перисто-кучевые, Ac - высококучевые, As - высокослоистые, Sc - слоисто-кучевые, Ns - слоисто-дождевые, Cu - кучевые, Cb - кучево-дождевые. Подробнее классификацию облаков см. в Атласе облаков (PDF).
T - Температура воздуха - температура, измеренная на высоте 2 м над землей.
Td - Температура точки росы - температура, при понижении до которой содержащийся в воздухе водяной пар достигнет насыщения.
f - Относительная влажность воздуха - влажноcть воздуха, измеренная на высоте 2 м над землей.
Te - Эффективная температура - температура, которую ощущает одетый по сезону человек в тени. Характеристика душности погоды. При расчете учитывается влияние влажности воздуха и скорости ветра на теплоощущения человека.
Tes - Эффективная температура на солнце - температура, которую ощущает человек, с поправкой на солнечный нагрев. Характеристика знойности погоды. Зависит от высоты солнца над горизонтом, облачности и скорости ветра. Ночью, в пасмурную погоду, а также при ветре 12 м/с и более поправка равна нулю.
P - Атмосферное давление - приведенное к уровню моря атмосферное давление.
Po - Атмосферное давление - измеренное на уровне метеостанции атмосферное давление.
Tmin - Минимальная температура - минимум температуры воздуха на высоте 2 м над землей.
Tmax - Максимальная температура - максимум температуры воздуха на высоте 2 м над землей.
R - Количество осадков - Количество выпавших осадков за период времени, мм. При наведении курсора мыши на число - период времени, за который выпало указанное количество осадков.
R24 - Количество осадков - Количество выпавших осадков за 24 часа, мм.
S - Снежный покров - Высота снежного покрова, см. При наведении курсора мыши на число - состояние снежного покрова и степень покрытия местности в баллах.